Rochester, NY

8:32 AM EDT on September 18, 2019 (GMT -0400)
Greater Rochester International

Weather History for KROC - July, 2019

Change the Weather History Date:

Friday, July 19, 2019

  Actual Average Record
Temperature  
Mean Temperature 81 °F 71 °F  
Max Temperature 89 °F 81 °F 95 °F (1978)
Min Temperature 73 °F 61 °F 50 °F (1956)
Degree Days  
Heating Degree Days 0 0  
Month to date heating degree days 0 6  
Since 1 June heating degree days 48 74  
Since 1 July heating degree days 0 6  
Cooling Degree Days 16 6  
Month to date cooling degree days 178 114  
Year to date cooling degree days 271 250  
Since 1 June cooling degree days 261 220  
Growing Degree Days 31 (Base 50)    
Moisture  
Dew Point 72 °F    
Average Humidity 75    
Maximum Humidity 87    
Minimum Humidity 62    
Precipitation  
Precipitation T in 0.11 in 1.30 in (1951)
Month to date precipitation 2.49 1.99  
Year to date precipitation 18.96 17.79  
Snow  
Snow 0.00 in 0.00 in 0.00 in ()
Month to date snowfall 0.0 0.0  
Since 1 June snowfall 0.0 0.0  
Since 1 July snowfall 0.0 0.0  
Snow Depth 0.00 in    
Sea Level Pressure  
Sea Level Pressure 29.84 in    
Wind  
Wind Speed 11 mph (WSW)    
Max Wind Speed 20 mph    
Max Gust Speed 24 mph    
Visibility 10 miles    
Events Rain , Thunderstorm    
T = Trace of Precipitation, MM = Missing Value Source: NWS Daily Summary

Daily Weather History Graph

Daily Weather History Graph

Search for Another Location

Airport or City:

Astronomy

Jul. 19, 2019 Rise Set
Actual Time 5:48 AM EDT 8:45 PM EDT
Civil Twilight 5:14 AM EDT 9:19 PM EDT
Nautical Twilight 4:31 AM EDT 10:01 PM EDT
Astronomical Twilight 3:40 AM EDT 10:52 PM EDT
Moon 10:39 PM EDT (7/19) 8:15 AM EDT (7/19)
Length of Visible Light 16h 04m
Length of Day
14h 57m
Waning Gibbous, 93% of the Moon is Illuminated
Jul 19
Waning Gibbous
Jul 24
Last Quarter
Jul 31
New
Aug 7
First Quarter
Aug 15
Full

Hourly Weather History & Observations

Time (EDT) Temp. Heat Index Dew Point Humidity Pressure Visibility Wind Dir Wind Speed Gust Speed Precip Events Conditions
12:54 AM 73.0 °F - 70.0 °F 90% 29.85 in 10.0 mi WSW 3.5 mph - N/A   Mostly Cloudy
1:54 AM 73.9 °F - 70.0 °F 87% 29.85 in 10.0 mi SW 6.9 mph - N/A   Scattered Clouds
2:54 AM 75.0 °F - 70.0 °F 84% 29.83 in 10.0 mi SW 10.4 mph - N/A   Scattered Clouds
3:54 AM 75.0 °F - 69.1 °F 82% 29.81 in 10.0 mi SW 10.4 mph - N/A   Partly Cloudy
4:54 AM 73.9 °F - 69.1 °F 85% 29.82 in 10.0 mi SW 5.8 mph - N/A   Partly Cloudy
5:54 AM 73.0 °F - 69.1 °F 87% 29.83 in 10.0 mi SW 8.1 mph - N/A   Partly Cloudy
6:54 AM 75.0 °F - 70.0 °F 84% 29.83 in 10.0 mi SW 8.1 mph - N/A   Partly Cloudy
7:54 AM 79.0 °F - 71.1 °F 77% 29.83 in 10.0 mi SW 10.4 mph - N/A   Clear
8:54 AM 82.9 °F 88.8 °F 73.0 °F 72% 29.83 in 10.0 mi WSW 15.0 mph - N/A   Partly Cloudy
9:46 AM 84.0 °F 90.2 °F 73.0 °F 69% 29.84 in 10.0 mi WSW 10.4 mph - N/A   Mostly Cloudy
9:54 AM 84.0 °F 91.2 °F 73.9 °F 72% 29.84 in 10.0 mi West 8.1 mph - N/A   Mostly Cloudy
10:54 AM 86.0 °F 93.8 °F 73.9 °F 67% 29.84 in 10.0 mi West 11.5 mph - N/A   Mostly Cloudy
11:54 AM 88.0 °F 98.5 °F 75.9 °F 67% 29.84 in 10.0 mi WSW 12.7 mph - N/A   Scattered Clouds
12:54 PM 88.0 °F 98.5 °F 75.9 °F 67% 29.83 in 10.0 mi WSW 17.3 mph - N/A   Scattered Clouds
1:01 PM 88.0 °F 98.5 °F 75.9 °F 67% 29.84 in 10.0 mi WSW 16.1 mph - N/A   Mostly Cloudy
1:24 PM 88.0 °F 98.5 °F 75.9 °F 67% 29.85 in 10.0 mi West 17.3 mph - N/A   Scattered Clouds
1:54 PM 88.0 °F 100.2 °F 77.0 °F 70% 29.83 in 10.0 mi WSW 11.5 mph - N/A   Scattered Clouds
2:42 PM 86.0 °F 96.0 °F 75.9 °F 72% 29.86 in 10.0 mi West 15.0 mph - N/A Thunderstorm Thunderstorm
2:54 PM 84.9 °F 94.1 °F 75.9 °F 74% 29.86 in 10.0 mi West 11.5 mph - N/A Thunderstorm Thunderstorm
3:15 PM 84.0 °F 92.6 °F 75.9 °F 76% 29.83 in 10.0 mi West 16.1 mph 24.2 mph N/A   Overcast
3:54 PM 81.0 °F 83.3 °F 66.9 °F 62% 29.81 in 10.0 mi WSW 11.5 mph - 0.00 in   Overcast
4:54 PM 81.0 °F 85.8 °F 73.0 °F 77% 29.81 in 10.0 mi West 13.8 mph 24.2 mph 0.00 in Rain Light Rain
5:54 PM 80.1 °F 82.9 °F 69.1 °F 69% 29.83 in 10.0 mi West 12.7 mph - 0.00 in   Overcast
6:54 PM 81.0 °F 84.1 °F 69.1 °F 67% 29.83 in 10.0 mi West 12.7 mph - N/A   Overcast
7:54 PM 80.1 °F 83.6 °F 71.1 °F 74% 29.84 in 10.0 mi WSW 9.2 mph - N/A   Overcast
8:54 PM 80.1 °F 84.2 °F 73.0 °F 79% 29.84 in 10.0 mi SW 9.2 mph - N/A   Mostly Cloudy
9:54 PM 80.1 °F 84.2 °F 73.0 °F 79% 29.85 in 10.0 mi SW 11.5 mph - N/A   Scattered Clouds
10:54 PM 79.0 °F - 72.0 °F 79% 29.85 in 10.0 mi SW 10.4 mph - N/A   Clear
11:54 PM 78.1 °F - 72.0 °F 81% 29.85 in 10.0 mi SW 10.4 mph - N/A   Scattered Clouds